Regional Weather Roundup
Issued by NWS

Home | Current Version | Previous Version | Graphics & Text | Print | Product List | Glossary On
Versions: 1 2 3 4 5 6 7 8 9 10 11 12 13 14 15 16 17 18 19 20 21 22 23 24 25 26 27 28
000
ASUS45 KSLC 222310
RWRUT

UTAH REGIONAL WEATHER ROUNDUP
NATIONAL WEATHER SERVICE SALT LAKE CITY UT
500 PM MDT SAT APR 22 2017

UTZ001>011-023>025-230000-

NORTHERN UTAH

CITY           SKY/WX    TMP DP  RH WIND       PRES   REMARKS
BRIGHAM CITY   SUNNY     58  30  34 S7        30.10F
HILL AFB       LGT RAIN  59  28  31 SE6       30.09F
LOGAN          SUNNY     60  33  36 CALM      30.08F
OGDEN          MOSUNNY   60  29  30 VRB6      30.08F
SALT LAKE CITY PTSUNNY   63  34  33 NW13      30.07F
TOOELE VALLEY  PTSUNNY   57  34  41 N5        30.10S
WENDOVER       PTSUNNY   58  20  22 NE3       30.08
HEBER CITY     MOSUNNY   63  25  23 NW6       30.07F
WEST JORDAN    MOSUNNY   65  40  40 S8        30.08F

$$

UTZ011>015-024>027-230000-

CENTRAL/NORTHEAST UTAH

CITY           SKY/WX    TMP DP  RH WIND       PRES   REMARKS
PROVO AIRPORT  MOSUNNY   58  31  35 W6        30.09F
MOAB/CANYONLAN SUNNY     67  15  13 VRB6      30.08F
DELTA          MOSUNNY   61  23  23 W5        30.09F
PRICE          SUNNY     59  16  18 VRB5      30.14F
ROOSEVELT      SUNNY     59  18  20 E7        30.16F
VERNAL         SUNNY     58  21  24 SW6       30.15F

$$

UTZ013>016-019>022-027-230000-

SOUTHERN UTAH

CITY           SKY/WX    TMP DP  RH WIND       PRES   REMARKS
BRYCE CANYON   SUNNY     58  17  20 SE15G24   30.17F
CEDAR CITY     MOSUNNY   66  28  24 NW6       30.09F
MILFORD        MOSUNNY   65  24  21 N9        30.08F
ST GEORGE      PTCLDY    78  23  13 VRB5      29.97F
HANKSVILLE     SUNNY     66  16  14 NE3       30.13F
BLANDING       SUNNY     64  18  16 S9        30.18F

$$

REGIONAL REPORTS     COLORADO/ARIZONA

CITY           SKY/WX    TMP DP  RH WIND       PRES   REMARKS
CRAIG, CO      SUNNY     59  18  20 S10G17    30.15F
GRAND JUNCTION SUNNY     65  15  14 CALM      30.09F
RIFLE, CO      SUNNY     63  17  17 VRB6      30.12F
MONTROSE, CO   SUNNY     62  13  14 VRB3      30.14F
CORTEZ, CO     SUNNY     65  14  14 S6        30.11F
COLORADO CITY    N/A     75  25  15 E6        30.08F
PAGE, AZ       SUNNY     69  11  10 NE9       30.07F
GRAND CANYON   SUNNY     68  24  19 NE14      30.14F
KINGMAN, AZ    SUNNY     82  25  12 CALM      29.95F
FLAGSTAFF, AZ  MOSUNNY   69  20  15 NE5       30.13F

$$

REGIONAL REPORTS    NEVADA/IDAHO/WYOMING

CITY           SKY/WX    TMP DP  RH WIND       PRES   REMARKS
LAS VEGAS, NV  MOSUNNY   83  16   8 VRB5      29.91F
ELY, NY        CLOUDY    63  29  27 SE6       30.05F
ELKO, NV       PTSUNNY   67  29  24 SW9       29.97F
POCATELLO, ID  CLOUDY    61  29  29 S16G30    30.05F
BURLEY, ID     MOSUNNY   65  26  23 S14G21    30.00F
FORT BRIDGER,    N/A     57  23  26 S6        30.17F
EVANSTON, WY   CLOUDY    53  24  32 VRB5      30.13F
ROCK SPRINGS,  SUNNY     55  15  20 S10       30.15F
KEMMERER, WY     N/A     52  18  25 CALM      30.16F

$$




USA.gov is the U.S. government's official web portal to all federal, state and local government web resources and services.